#timestamp,LO_Frequency,Hit,StdDev 
1638687615.2,286047000.5,N
1638687635.0,286047000.1,N
1638687635.9,286047000.1,N
1638687655.8,286047001.8,N
1638687675.6,286047001.6,N
1638687695.4,286046999.8,N
1638687715.3,286047001.3,N
1638687735.1,286047002.0,N
1638687755.8,286047002.3,N
1638687775.7,286047001.4,N
1638687795.5,286047001.5,N
1638687815.4,286047001.9,N
1638687835.2,286047001.8,N
1638687855.0,286047002.4,N
1638687855.9,286047002.4,N
1638687875.8,286047002.6,N
1638687895.6,286047001.7,N
1638687915.5,286047001.6,N
1638687935.3,286047002.0,N
1638687955.1,286047002.5,N
1638687975.9,286047000.1,N
1638687995.7,286046999.7,N
1638688015.5,286046999.8,N
1638688035.4,286047001.9,N
1638688055.2,286047002.0,N
1638688075.1,286047004.1,Y
1638688076.0,286047004.1,P
1638688095.8,286047002.7,N
1638688115.6,286047002.7,N
1638688135.5,286047002.7,N
1638688155.3,286047001.6,N
1638688175.2,286047001.6,N
1638688195.0,286047002.5,N
1638688195.9,286047002.5,Y
1638688215.7,286046998.4,P
1638688235.6,286046999.6,N
1638688255.4,286046997.7,N
1638688275.3,286046996.6,N
1638688295.1,286046998.9,N
1638688296.0,286046998.9,N
1638688315.8,286046996.8,N
1638688335.7,286046996.8,N
1638688355.5,286046997.1,N
1638688375.4,286046996.6,N
1638688395.2,286046997.3,N
1638688415.0,286046995.1,Y
1638688415.9,286046995.1,P
1638688435.8,286046996.6,N
1638688455.6,286046999.2,N
1638688475.5,286046997.3,N
1638688495.3,286046997.0,N
1638688515.1,286046995.4,Y
1638688535.9,286047000.0,P
1638688555.7,286046998.4,N
1638688575.5,286046998.7,N
1638688595.4,286046996.9,Y
1638688615.2,286046999.7,P
1638688635.1,286047002.8,P
1638688636.0,286047002.8,N
1638688655.8,286047000.3,N
1638688675.6,286047000.1,N
1638688695.5,286047001.9,N
1638688715.3,286047002.5,N
1638688735.2,286047002.2,N
1638688755.9,286047002.3,N
1638688775.7,286046999.7,N
1638688795.6,286047002.3,N
1638688815.4,286047001.8,N
1638688835.2,286047002.5,N
1638688855.1,286047000.1,N
1638688856.0,286047000.1,N
1638688875.8,286047002.8,N
1638688895.7,286047002.6,N
1638688915.5,286047004.0,N
1638688935.3,286047002.8,N
1638688955.2,286047002.8,N
1638688975.0,286047000.5,N
1638688975.9,286047000.5,N
1638688995.8,286047000.1,N
1638689015.6,286046999.9,N
1638689035.4,286047000.2,N
1638689055.3,286047001.9,N
1638689075.1,286047001.1,N
1638689095.8,286046998.2,N
1638689115.7,286047011.9,Y
1638689135.5,286046998.8,P
1638689155.4,286047000.9,N
1638689175.2,286047000.7,N
1638689195.1,286047001.1,N
1638689196.0,286047001.1,N
1638689215.8,286047000.8,N
1638689235.6,286046998.4,N
1638689255.5,286046997.5,N
1638689275.3,286046995.0,Y
1638689295.1,286046997.4,P
1638689315.9,286046999.6,N
1638689335.7,286046996.5,P
1638689355.6,286046996.5,N
1638689375.4,286046996.8,N
1638689395.2,286046996.5,N
1638689415.1,286046997.1,N
1638689416.0,286046997.1,N
1638689435.8,286046994.9,Y
1638689455.7,286046998.8,P
1638689475.5,286046999.4,N
1638689495.3,286046998.6,N
1638689515.2,286046998.9,N
1638689535.9,286047000.7,N
1638689555.7,286046998.1,N
1638689575.6,286047000.6,N
1638689595.4,286047000.5,N
1638689615.3,286047000.4,N
1638689635.1,286047000.3,N
1638689636.0,286047000.3,N
1638689655.8,286047000.1,N
1638689675.7,286047000.5,N
1638689695.5,286047000.6,N
1638689715.3,286046998.2,N
1638689735.2,286047000.6,N
1638689755.0,286046999.7,N
1638689755.9,286046999.7,N
1638689775.8,286047001.7,N
1638689795.6,286047002.3,N
1638689815.4,286047000.1,N
1638689835.3,286047002.2,N
1638689855.1,286046999.8,N
1638689875.8,286046999.9,N
1638689895.7,286047000.4,N
1638689915.5,286047001.0,N
1638689935.4,286046999.7,N
1638689955.2,286046999.7,N
1638689975.0,286047002.8,N
1638689975.9,286047002.8,N
1638689995.8,286047002.5,N
1638690015.6,286047000.6,N
1638690035.4,286046998.7,N
1638690055.3,286047000.9,N
1638690075.1,286047000.3,N
1638690095.9,286046998.1,N
1638690115.7,286046998.6,N
1638690135.5,286046998.6,N
1638690155.4,286047000.9,N
1638690175.2,286047000.4,N
1638690195.1,286046998.1,N
1638690196.0,286046998.1,N
1638690215.8,286047000.9,N
1638690235.6,286046999.1,N
1638690255.5,286046998.6,N
1638690275.3,286047000.7,N
1638690295.1,286047001.0,N
1638690315.9,286047000.4,N
1638690335.7,286047000.5,N
1638690355.6,286046998.1,N
1638690375.4,286047000.9,N
1638690395.2,286047000.8,N
1638690415.1,286046999.0,N
1638690416.0,286046999.0,N
1638690435.8,286046999.5,N
1638690455.6,286046997.7,N
1638690475.5,286046996.9,N
1638690495.3,286046996.9,N
1638690515.2,286046998.5,N
1638690535.9,286047000.9,N
1638690555.7,286047000.5,N
1638690575.6,286046998.3,N
1638690595.4,286046999.1,N
1638690615.2,286046998.2,N
1638690635.1,286047000.9,N
1638690636.0,286047000.9,N
1638690655.8,286046998.7,N
1638690675.7,286046999.2,N
1638690695.5,286046999.5,N
1638690715.3,286046999.3,N
1638690735.2,286047000.8,N
1638690755.0,286046998.6,N
1638690755.9,286046998.6,N
1638690775.7,286046999.1,N
1638690795.6,286047001.2,N
1638690815.4,286046997.5,N
1638690835.3,286046996.8,N
1638690855.1,286046997.9,N
1638690875.8,286046997.5,N
1638690895.7,286046996.2,N
1638690915.5,286046996.1,N
1638690935.3,286046996.4,N
1638690955.2,286046993.4,Y
1638690975.0,286046995.8,P
1638690975.9,286046995.8,N
1638690995.8,286046993.5,P
1638691015.6,286046994.6,N
1638691035.5,286046994.2,Y
1638691055.3,286046996.5,P
1638691075.1,286047000.2,N
1638691095.9,286046998.1,N
1638691115.7,286047000.3,N
1638691135.5,286046998.3,N
1638691155.4,286047001.2,N
1638691175.2,286046998.7,N
1638691195.0,286046998.6,N
1638691196.0,286046998.6,N
